Regional Weather Roundup
Issued by NWS Northern Indiana

Home | Current Version | Previous Version | Graphics & Text | Print | Product List | Glossary On
Versions: 1 2 3 4 5 6 7 8 9 10 11 12 13 14 15 16 17 18 19 20 21 22 23 24 25 26 27 28 29 30 31 32 33 34 35 36 37 38 39 40 41 42 43 44 45 46 47 48 49 50
878
ASUS43 KIWX 281810
RWRIWX

KIWX WEATHER ROUNDUP
NATIONAL WEATHER SERVICE NORTHERN INDIANA
200 PM EDT SAT MAY 28 2016

NOTE: "FAIR" INDICATES FEW OR NO CLOUDS BELOW 12,000 FEET WITH NO
SIGNIFICANT WEATHER AND/OR OBSTRUCTIONS TO VISIBILITY.

* THESE STATIONS ARE NOT UNDER NWS QUALITY CONTROL. THEY ALSO MAY NOT
  REPORT WEATHER SUCH AS PRECIPITATION OR FOG.

INZ001>027-281900-
NORTHERN INDIANA

CITY           SKY/WX    TMP DP  RH WIND       PRES   REMARKS
GARY*          CLOUDY    79  72  78 S14G28    29.95S
VALPARAISO     CLOUDY    77  64  64 S16G26    29.98F
6HR MIN TEMP:  72; 6HR MAX TEMP:  79; 6HR PCP: TRACE;

MICHIGAN CITY* CLOUDY    77  64  65 S18G26    29.97F
LAPORTE*       CLOUDY    79  66  64 S15G22    29.99S
6HR MIN TEMP:  73; 6HR MAX TEMP:  80;

KNOX*            N/A     77  54  44 SW17G24     N/A
SOUTH BEND     CLOUDY    80  63  55 S17G28    29.99F
6HR MIN TEMP:  73; 6HR MAX TEMP:  80; 6HR PCP: TRACE;

ELKHART*       CLOUDY    82  68  61 SW13      29.99F
GOSHEN         CLOUDY    83  59  44 S23G33    30.00F
6HR MIN TEMP:  73; 6HR MAX TEMP:  84;

MONTICELLO*    CLOUDY    80  58  47 SW15G21   29.99S
6HR MIN TEMP:  73; 6HR MAX TEMP:  83;

LOGANSPORT*    CLOUDY    82  59  44 SW23G30   30.01S
ROCHESTER*     SUNNY     86  61  42 SW12G26   30.00F
WARSAW*        MOSUNNY   82  61  47 SW14G22   30.00F
ANGOLA*          N/A     84  63  48 S16       30.02F
FORT WAYNE     CLOUDY    85  61  44 SW16G30   30.03F
6HR MIN TEMP:  73; 6HR MAX TEMP:  85; 6HR PCP: TRACE;

HUNTINGTON*    MOSUNNY   84  61  46 SW15G25   30.02F
PERU/GRISSOM   CLOUDY    84  63  48 SW22      29.99F
6HR MIN TEMP:  73; 6HR MAX TEMP:  85;

MARION*        MOSUNNY   84  60  44 SW20G30   30.03F
6HR MIN TEMP:  -1; 6HR MAX TEMP:  86;


$$
INZ028>050-281900-
CENTRAL INDIANA

CITY           SKY/WX    TMP DP  RH WIND       PRES   REMARKS
LAFAYETTE      CLOUDY    80  60  50 S16G28    29.99F
6HR MIN TEMP:  73; 6HR MAX TEMP:  80;

KOKOMO*        MOSUNNY   82  63  51 SW20G29   30.00F
6HR MIN TEMP:  72; 6HR MAX TEMP:  82;

MUNCIE*        MOSUNNY   85  62  46 SW10G23   30.04F
6HR MIN TEMP:  73; 6HR MAX TEMP:  86;

INDIANAPOLIS   PTSUNNY   80  64  58 S17       30.02S
6HR MIN TEMP:  72; 6HR MAX TEMP:  82;


$$
MIZ043>046-050>051-056>058-064>065-071>073-077>080-281900-
SOUTHWEST LOWER MICHIGAN

CITY           SKY/WX    TMP DP  RH WIND       PRES   REMARKS
BENTON HARBOR  CLOUDY    79  64  60 S20G30    29.96F
6HR MIN TEMP:  74; 6HR MAX TEMP:  81;

COLDWATER*     PTSUNNY   82  61  49 S8G23     30.01F
6HR MIN TEMP:  72; 6HR MAX TEMP:  82;

HILLSDALE*     CLOUDY    81  57  43 SW14G22   30.05F
HOLLAND        MOSUNNY   83  67  58 S20G28    29.96F
6HR MIN TEMP:  70; 6HR MAX TEMP:  83;

GRAND RAPIDS   CLOUDY    83  67  58 S14G21    29.98F
6HR MIN TEMP:  71; 6HR MAX TEMP:  84; 6HR PCP: TRACE;

KALAMAZOO      CLOUDY    80  64  58 S16       29.99F
6HR MIN TEMP:  73; 6HR MAX TEMP:  82;

STURGIS*       PTSUNNY   81  59  46 SW22G29   30.00S
6HR MIN TEMP:  72; 6HR MAX TEMP:  83;

THREE RIVERS*  FAIR      81  60  48 SW14G21   30.00F

$$
OHZ001>008-015>018-024>025-281900-
NORTHWEST OHIO

CITY           SKY/WX    TMP DP  RH WIND       PRES   REMARKS
WAUSEON*         N/A     86  81  84 SW20G26   30.04S HX 102
DEFIANCE       CLOUDY    86  60  41 S14G24    30.04F
6HR MIN TEMP:  74; 6HR MAX TEMP:  86;

FINDLAY        PTSUNNY   85  61  44 SW15      30.04F
6HR MIN TEMP:  73; 6HR MAX TEMP:  88;

TOLEDO EXPRESS MOSUNNY   88  62  41 S14       30.03F
6HR MIN TEMP:  70; 6HR MAX TEMP:  88;

TOLEDO METCALF MOSUNNY   88  62  41 SW14G21   30.04F
6HR MIN TEMP:  73; 6HR MAX TEMP:  88;

LIMA           MOSUNNY   85  63  47 SW14      30.06F
6HR MIN TEMP:  72; 6HR MAX TEMP:  85;


$$
AND FOR LAKE MICHIGAN COASTAL AND OPEN LAKE BUOY OBSERVATIONS

STATION/POSITION TEMP    WIND        PRES    VSBY  WAVE
                 AIR SEA DIR/SP/G                  HT/PER
                 (F)     (DEG/KT/KT) (MB)    (MI)  (FT/S)
CALUMET HARBOR    75     180/ 14/ 20 1013.3R
MICHIGAN CITY     76     160/ 18/ 22   N/A
BURNS HARBOR      75     190/ 14/ 25 1014.9R
SAINT JOSEPH      76     180/ 12/ 16 1015.6R
SOUTH LAKE BUOY   57 50  160/ 14/ 16 1013.1S         2/ 4
4 MI NW BRIDGMAN  69 60  190/ 12/ 16   N/A           3/ 3
MICHIGAN CITY     70 58  200/ 17/ 23   N/A           2/ 3

$$
&&




USA.gov is the U.S. government's official web portal to all federal, state and local government web resources and services.